Location: Basse Occidentale du Courleau
(48.3833°N, 4.8333°W)
Time: 08:41:38
(UTC+00:00)

Cosmos 2058 - Pass Details

Date: 05 July 2020
Orbit: 562 x 584 km, 82.5° (Epoch: 08 August)

Event Time Altitude Azimuth Distance (km) Brightness Sun altitude
Exits shadow 23:01:04 27° 196° (SSW) 1,126 3.9 -16.6°
Maximum altitude 23:03:18 79° 280° (W) 591 2.9 -16.7°
Drops below altitude 10° 23:07:28 10° 7° (N) 1,887 6.5 -16.9°
Sets 23:09:39 0° 9° (N) 2,786 7.6 -17.0°
